Weather History for Mason City, IA

Change the Weather History Date:

Tuesday, March 25, 2014

  Actual Average Record
Temperature  
Mean Temperature 19 °F 37 °F  
Max Temperature 24 °F 47 °F 80 °F (1907)
Min Temperature 13 °F 27 °F 1 °F (1955)
Degree Days  
Heating Degree Days 46 28  
Month to date heating degree days 1035 834  
Since 1 July heating degree days 7581 6685  
Cooling Degree Days 0 0  
Month to date cooling degree days 0 0  
Year to date cooling degree days 0 0  
Moisture  
Dew Point 9 °F    
Average Humidity 70    
Maximum Humidity 88    
Minimum Humidity 51    
Precipitation  
Precipitation T in 0.09 in 1.17 in (1963)
Month to date precipitation 0.65 1.67  
Year to date precipitation 3.67 3.49  
Snow  
Snow T in 0.10 in 4.80 in (1996)
Month to date snowfall 6.8 5.0  
Since 1 July snowfall 52.9 37.5  
Snow Depth T in    
Sea Level Pressure  
Sea Level Pressure 30.26 in    
Wind  
Wind Speed 15 mph (NW)    
Max Wind Speed 32 mph    
Max Gust Speed 38 mph    
Visibility 10 miles    
Events Snow    
T = Trace of Precipitation, MM = Missing Value Source: NWS Daily Summary

Daily Weather History Graph

Daily Weather History Graph

Search for Another Location

Airport:

Trip Planner

Search our weather history database for the weather conditions in past years. The results will help you decide how hot, cold, wet, or windy it might be!

Date:

Astronomy

Mar. 25, 2014 Rise Set
Actual Time 7:07 AM CDT 7:31 PM CDT
Civil Twilight 6:39 AM CDT 8:00 PM CDT
Nautical Twilight 6:05 AM CDT 8:33 PM CDT
Astronomical Twilight 5:31 AM CDT 9:08 PM CDT
Moon 3:37 AM CDT (3/25) 1:55 PM CDT (3/25)
Length of Visible Light 13h 20m
Length of Day
12h 23m
Waning Crescent, 32% of the Moon is Illuminated
Mar 25
Waning Crescent
Mar 30
New
Apr 7
First Quarter
Apr 15
Full
Apr 22
Last Quarter

Hourly Weather History & Observations

Time (CDT) Temp. Windchill Dew Point Humidity Pressure Visibility Wind Dir Wind Speed Gust Speed Precip Events Conditions
12:53 AM 19.0 °F 6.8 °F 14.0 °F 81% 30.17 in 10.0 mi West 11.5 mph - N/A   Clear
1:53 AM 21.0 °F 8.1 °F 14.0 °F 74% 30.18 in 10.0 mi NW 13.8 mph - N/A   Clear
2:53 AM 21.9 °F 6.9 °F 15.1 °F 75% 30.18 in 10.0 mi NW 19.6 mph - N/A   Mostly Cloudy
3:53 AM 19.9 °F 3.5 °F 10.9 °F 68% 30.18 in 10.0 mi NNW 21.9 mph 29.9 mph N/A   Partly Cloudy
4:53 AM 19.0 °F 2.4 °F 10.9 °F 71% 30.20 in 10.0 mi NW 21.9 mph 28.8 mph N/A   Partly Cloudy
5:10 AM 17.1 °F -0.6 °F 10.9 °F 77% 30.17 in 10.0 mi NNW 23.0 mph 31.1 mph N/A   Mostly Cloudy
5:19 AM 17.1 °F 0.6 °F 10.0 °F 74% 30.18 in 10.0 mi NNW 19.6 mph - N/A   Scattered Clouds
5:53 AM 16.0 °F -1.3 °F 8.1 °F 71% 30.24 in 10.0 mi NNW 20.7 mph - N/A   Clear
6:23 AM 16.0 °F 0.1 °F 9.0 °F 74% 30.21 in 10.0 mi NNW 17.3 mph - N/A   Mostly Cloudy
6:53 AM 14.0 °F -5.8 °F 3.0 °F 62% 30.27 in 6.0 mi NNW 26.5 mph 34.5 mph 0.00 in Snow Light Snow
7:53 AM 14.0 °F -3.0 °F 3.0 °F 62% 30.30 in 10.0 mi NNW 18.4 mph - 0.00 in   Clear
8:53 AM 15.1 °F -5.3 °F 1.0 °F 54% 30.31 in 10.0 mi NNW 29.9 mph 38.0 mph N/A   Clear
9:53 AM 17.1 °F 0.1 °F 5.0 °F 59% 30.33 in 10.0 mi NNW 20.7 mph - N/A   Scattered Clouds
10:53 AM 18.0 °F 0.2 °F 3.9 °F 54% 30.36 in 10.0 mi NW 24.2 mph - N/A   Partly Cloudy
11:53 AM 19.9 °F 4.3 °F 5.0 °F 52% 30.35 in 10.0 mi NW 19.6 mph 28.8 mph N/A   Overcast
12:53 PM 21.0 °F 5.4 °F 6.1 °F 53% 30.35 in 10.0 mi NW 20.7 mph 26.5 mph N/A   Overcast
1:53 PM 21.0 °F 6.6 °F 6.1 °F 53% 30.34 in 10.0 mi NW 17.3 mph - N/A   Overcast
2:53 PM 21.0 °F 7.1 °F 7.0 °F 55% 30.31 in 10.0 mi NW 16.1 mph - N/A   Overcast
3:53 PM 21.0 °F 9.3 °F 7.0 °F 55% 30.31 in 10.0 mi WNW 11.5 mph 21.9 mph N/A   Overcast
4:53 PM 23.0 °F 10.6 °F 8.1 °F 53% 30.29 in 10.0 mi WNW 13.8 mph - N/A   Overcast
5:53 PM 23.0 °F 13.9 °F 8.1 °F 53% 30.27 in 10.0 mi NW 8.1 mph - N/A   Mostly Cloudy
6:53 PM 21.9 °F 11.7 °F 9.0 °F 58% 30.26 in 10.0 mi WNW 9.2 mph - N/A   Clear
7:53 PM 19.9 °F 14.9 °F 10.0 °F 65% 30.26 in 10.0 mi North 3.5 mph - N/A   Clear
8:53 PM 18.0 °F - 12.0 °F 78% 30.25 in 10.0 mi Calm Calm - N/A   Clear
9:53 PM 17.1 °F 10.0 °F 12.9 °F 84% 30.25 in 10.0 mi South 4.6 mph - N/A   Clear
10:53 PM 16.0 °F 8.8 °F 12.0 °F 84% 30.25 in 10.0 mi South 4.6 mph - N/A   Clear
11:53 PM 15.1 °F 7.7 °F 10.9 °F 84% 30.24 in 10.0 mi SSE 4.6 mph - N/A   Clear